| time (UTC) | temp C | wind direction | speed KPH | gust KPH | rain 1hr cm | rain 24hr cm | rain mn cm | humidity % | barometer mb |
| 20260508203019 | 11 | 90 | 16.1 | 20.9 | 0.00 | 0.43 | 0.00 | 73 | 1001.5 |
| 20260508201516 | 11 | 70 | 11.3 | 20.9 | 0.00 | 0.43 | 0.00 | 71 | 1001.5 |
| 20260508200014 | 10 | 78 | 16.1 | 19.3 | 0.00 | 1.14 | 0.00 | 74 | 1001.3 |
| 20260508194513 | 10 | 86 | 11.3 | 17.7 | 0.00 | 1.14 | 0.00 | 74 | 1001.2 |
| 20260508193011 | 11 | 97 | 14.5 | 20.9 | 0.00 | 1.14 | 0.00 | 73 | 1001.1 |
| 20260508191510 | 11 | 70 | 16.1 | 22.5 | 0.00 | 1.14 | 0.00 | 73 | 1000.9 |
| 20260508190007 | 10 | 77 | 12.9 | 20.9 | 0.00 | 1.93 | 0.00 | 74 | 1000.9 |
| 20260508184506 | 10 | 85 | 12.9 | 20.9 | 0.00 | 1.93 | 0.00 | 75 | 1000.9 |
| 20260508183004 | 10 | 86 | 14.5 | 24.1 | 0.00 | 1.93 | 0.00 | 74 | 1001.2 |
| 20260508181508 | 11 | 94 | 16.1 | 20.9 | 0.00 | 1.93 | 0.00 | 73 | 1001.0 |
| 20260508180001 | 11 | 80 | 17.7 | 25.7 | 0.00 | 1.93 | 0.00 | 77 | 1000.9 |
| 20260508174559 | 11 | 82 | 17.7 | 24.1 | 0.00 | 1.93 | 0.00 | 77 | 1001.0 |
| 20260508173100 | 11 | 88 | 17.7 | 22.5 | 0.00 | 1.93 | 0.00 | 76 | 1001.0 |
| 20260508171609 | 11 | 89 | 17.7 | 24.1 | 0.00 | 1.93 | 0.00 | 76 | 1001.4 |
| 20260508170100 | 11 | 94 | 16.1 | 22.5 | 0.00 | 1.93 | 0.00 | 76 | 1001.2 |
| 20260508164556 | 11 | 105 | 17.7 | 22.5 | 0.00 | 1.93 | 0.00 | 76 | 1001.2 |
| 20260508163057 | 10 | 99 | 19.3 | 24.1 | 0.00 | 1.93 | 0.00 | 77 | 1001.4 |
| 20260508161554 | 10 | 92 | 17.7 | 24.1 | 0.00 | 1.93 | 0.00 | 76 | 1001.3 |
| 20260508160056 | 11 | 92 | 16.1 | 20.9 | 0.00 | 1.93 | 0.00 | 76 | 1001.2 |
| 20260508154653 | 11 | 77 | 14.5 | 22.5 | 0.00 | 1.93 | 0.00 | 77 | 1001.3 |
| 20260508153052 | 11 | 74 | 17.7 | 20.9 | 0.00 | 1.93 | 0.00 | 77 | 1001.4 |
| 20260508151554 | 11 | 99 | 16.1 | 20.9 | 0.00 | 1.93 | 0.00 | 76 | 1001.6 |
| 20260508150050 | 11 | 94 | 17.7 | 22.5 | 0.00 | 1.93 | 0.00 | 76 | 1001.8 |
| 20260508144549 | 11 | 99 | 19.3 | 24.1 | 0.00 | 1.93 | 0.00 | 78 | 1001.7 |
| 20260508143050 | 11 | 80 | 17.7 | 22.5 | 0.00 | 1.93 | 0.00 | 76 | 1002.0 |
| 20260508141547 | 11 | 80 | 12.9 | 19.3 | 0.00 | 1.93 | 0.00 | 79 | 1002.1 |
| 20260508140046 | 11 | 83 | 14.5 | 19.3 | 0.00 | 1.93 | 0.00 | 79 | 1002.4 |
| 20260508134545 | 11 | 85 | 12.9 | 17.7 | 0.00 | 1.93 | 0.00 | 84 | 1002.5 |
| 20260508133045 | 10 | 80 | 12.9 | 17.7 | 0.00 | 1.93 | 0.00 | 85 | 1002.4 |
| 20260508131544 | 10 | 98 | 17.7 | 20.9 | 0.00 | 1.93 | 0.00 | 85 | 1002.2 |
| 20260508130105 | 10 | 92 | 17.7 | 22.5 | 0.00 | 1.93 | 0.00 | 86 | 1002.3 |
| 20260508124543 | 10 | 87 | 16.1 | 22.5 | 0.00 | 1.96 | 0.00 | 87 | 1002.0 |
| 20260508123042 | 12 | 81 | 16.1 | 20.9 | 0.00 | 1.96 | 0.00 | 82 | 1002.0 |
| 20260508121542 | 12 | 94 | 11.3 | 16.1 | 0.00 | 1.96 | 0.00 | 83 | 1002.0 |
| 20260508120034 | 10 | 64 | 4.8 | 11.3 | 0.00 | 2.16 | 0.00 | 88 | 1002.3 |
| 20260508114530 | 10 | 103 | 3.2 | 6.4 | 0.00 | 2.16 | 0.00 | 97 | 1002.2 |
| 20260508113026 | 8 | 171 | 1.6 | 6.4 | 0.00 | 2.16 | 0.00 | 99 | 1002.2 |
| 20260508111524 | 7 | 207 | 0.0 | 4.8 | 0.00 | 2.16 | 0.00 | 99 | 1002.5 |
| 20260508110024 | 6 | 280 | 0.0 | 3.2 | 0.00 | 2.16 | 0.00 | 99 | 1002.9 |
| 20260508104534 | 6 | 305 | 0.0 | 4.8 | 0.00 | 2.16 | 0.00 | 99 | 1002.7 |
| 20260508103033 | 6 | 83 | 0.0 | 3.2 | 0.00 | 2.16 | 0.00 | 99 | 1002.8 |
| 20260508101520 | 5 | 83 | 0.0 | 3.2 | 0.00 | 2.16 | 0.00 | 99 | 1002.6 |
| 20260508100018 | 5 | 83 | 0.0 | 6.4 | 0.00 | 2.16 | 0.00 | 99 | 1002.5 |
| 20260508094516 | 5 | 67 | 6.4 | 9.7 | 0.00 | 2.16 | 0.00 | 99 | 1002.4 |
| 20260508093014 | 5 | 264 | 0.0 | 3.2 | 0.00 | 2.16 | 0.00 | 98 | 1002.1 |
| 20260508091516 | 5 | 264 | 1.6 | 4.8 | 0.00 | 2.16 | 0.00 | 98 | 1002.3 |
| 20260508090016 | 5 | 264 | 0.0 | 4.8 | 0.00 | 2.16 | 0.00 | 98 | 1002.0 |
| 20260508084512 | 5 | 266 | 3.2 | 8.0 | 0.00 | 2.16 | 0.00 | 98 | 1001.8 |
| 20260508083010 | 5 | 71 | 1.6 | 4.8 | 0.00 | 2.16 | 0.00 | 98 | 1001.5 |
| 20260508081508 | 5 | 71 | 0.0 | 0.0 | 0.00 | 2.16 | 0.00 | 98 | 1001.5 |
| 20260508080008 | 5 | 71 | 0.0 | 0.0 | 0.00 | 2.16 | 0.00 | 98 | 1001.5 |
| 20260508074508 | 5 | 71 | 0.0 | 4.8 | 0.00 | 2.16 | 0.00 | 98 | 1001.5 |
| 20260508073006 | 5 | 71 | 1.6 | 6.4 | 0.00 | 2.16 | 0.00 | 98 | 1001.5 |
| 20260508071507 | 5 | 84 | 3.2 | 11.3 | 0.00 | 2.16 | 0.00 | 98 | 1001.6 |
| 20260508070010 | 5 | 292 | 0.0 | 4.8 | 0.00 | 2.16 | 0.00 | 98 | 1001.6 |
| 20260508064502 | 5 | 70 | 0.0 | 0.0 | 0.00 | 2.16 | 0.00 | 98 | 1001.5 |
| 20260508063101 | 5 | 70 | 1.6 | 8.0 | 0.00 | 2.16 | 0.00 | 97 | 1001.5 |
| 20260508061604 | 6 | 70 | 3.2 | 6.4 | 0.00 | 2.16 | 0.00 | 98 | 1001.5 |
| 20260508060056 | 6 | 70 | 0.0 | 0.0 | 0.00 | 2.16 | 0.00 | 97 | 1001.1 |
| 20260508054557 | 6 | 70 | 0.0 | 0.0 | 0.00 | 2.16 | 0.00 | 97 | 1001.3 |
| 20260508053103 | 6 | 70 | 0.0 | 6.4 | 0.00 | 2.16 | 0.00 | 97 | 1001.3 |
| 20260508051553 | 7 | 62 | 4.8 | 16.1 | 0.00 | 2.16 | 0.00 | 96 | 1001.2 |
| 20260508050047 | 7 | 65 | 1.6 | 3.2 | 0.00 | 2.16 | 0.00 | 97 | 1001.3 |
| 20260508044546 | 7 | 65 | 0.0 | 0.0 | 0.00 | 2.16 | 0.00 | 97 | 1001.5 |
| 20260508043058 | 7 | 65 | 0.0 | 0.0 | 0.00 | 2.16 | 0.00 | 97 | 1001.5 |
| 20260508041546 | 7 | 65 | 0.0 | 0.0 | 0.00 | 2.16 | 0.00 | 97 | 1001.4 |
| 20260508040043 | 7 | 65 | 0.0 | 0.0 | 0.00 | 2.16 | 0.00 | 96 | 1001.6 |
| 20260508034542 | 7 | 65 | 0.0 | 1.6 | 0.00 | 2.16 | 0.00 | 96 | 1001.6 |
| 20260508033039 | 7 | 65 | 1.6 | 4.8 | 0.00 | 2.16 | 0.00 | 96 | 1001.8 |
| 20260508031536 | 7 | 65 | 3.2 | 9.7 | 0.00 | 2.16 | 0.00 | 95 | 1002.0 |
| 20260508030047 | 7 | 70 | 1.6 | 12.9 | 0.00 | 2.16 | 2.16 | 94 | 1002.0 |
| 20260508024533 | 8 | 20 | 1.6 | 9.7 | 0.00 | 2.16 | 2.16 | 92 | 1002.3 |
| 20260508023025 | 10 | 85 | 19.3 | 25.7 | 0.00 | 2.16 | 2.16 | 89 | 1001.9 |
| 20260508021523 | 10 | 213 | 3.2 | 8.0 | 0.00 | 2.16 | 2.16 | 91 | 1001.8 |
| 20260508020021 | 11 | 242 | 6.4 | 11.3 | 0.00 | 2.16 | 2.16 | 91 | 1001.8 |
| 20260508014519 | 11 | 232 | 4.8 | 17.7 | 0.00 | 2.16 | 2.16 | 91 | 1001.5 |
| 20260508013018 | 11 | 216 | 11.3 | 16.1 | 0.00 | 2.16 | 2.16 | 92 | 1001.4 |
| 20260508011515 | 11 | 224 | 8.0 | 14.5 | 0.00 | 2.16 | 2.16 | 93 | 1001.0 |
| 20260508010022 | 11 | 239 | 8.0 | 17.7 | 0.00 | 2.16 | 2.16 | 93 | 1001.2 |
| 20260508004514 | 11 | 223 | 3.2 | 12.9 | 0.00 | 2.16 | 2.16 | 94 | 1001.3 |
| 20260508003012 | 11 | 250 | 6.4 | 11.3 | 0.00 | 2.16 | 2.16 | 93 | 1001.4 |
| 20260508001511 | 11 | 267 | 3.2 | 12.9 | 0.00 | 2.16 | 2.16 | 94 | 1001.3 |
| 20260508000010 | 11 | 265 | 1.6 | 9.7 | 0.00 | 2.16 | 2.16 | 94 | 1001.4 |
| 20260507234509 | 11 | 265 | 0.0 | 4.8 | 0.00 | 2.16 | 2.16 | 93 | 1001.3 |
| 20260507233008 | 12 | 250 | 1.6 | 11.3 | 0.00 | 2.16 | 2.16 | 92 | 1001.3 |
| 20260507231514 | 12 | 262 | 8.0 | 12.9 | 0.00 | 2.16 | 2.16 | 92 | 1001.4 |
| 20260507230006 | 12 | 228 | 1.6 | 11.3 | 0.00 | 2.16 | 2.16 | 92 | 1001.5 |
| 20260507224506 | 12 | 292 | 4.8 | 11.3 | 0.00 | 2.16 | 2.16 | 92 | 1001.4 |
| 20260507223008 | 12 | 280 | 3.2 | 12.9 | 0.00 | 2.16 | 2.16 | 92 | 1001.2 |
| 20260507221507 | 12 | 247 | 6.4 | 20.9 | 0.00 | 2.16 | 2.16 | 92 | 1001.5 |
| 20260507220003 | 12 | 271 | 4.8 | 12.9 | 0.00 | 2.16 | 2.16 | 93 | 1001.8 |
| 20260507214503 | 12 | 215 | 3.2 | 14.5 | 0.03 | 2.16 | 2.16 | 95 | 1001.7 |
| 20260507213002 | 12 | 243 | 1.6 | 17.7 | 0.08 | 2.16 | 2.16 | 94 | 1001.5 |
| 20260507211501 | 12 | 206 | 12.9 | 22.5 | 0.25 | 2.16 | 2.16 | 94 | 1002.3 |
| 20260507210100 | 12 | 253 | 9.7 | 30.6 | 0.43 | 2.16 | 2.16 | 94 | 1001.2 |
| 20260507204601 | 12 | 302 | 8.0 | 20.9 | 0.56 | 2.13 | 2.13 | 94 | 1001.5 |